Virginia Beach, VA

3:05 PM EST on February 19, 2017 (GMT -0500)
Norfolk International

Weather History for KORF - February, 2013

Change the Weather History Date:

Sunday, February 3, 2013

  Actual Average Record
Temperature  
Mean Temperature 37 °F 41 °F  
Max Temperature 42 °F 49 °F 81 °F (1989)
Min Temperature 32 °F 33 °F 9 °F (1917)
Degree Days  
Heating Degree Days 28 24  
Month to date heating degree days 89 72  
Since 1 July heating degree days 1854 2014  
Cooling Degree Days 0 0  
Month to date cooling degree days 0 0  
Year to date cooling degree days 0 0  
Moisture  
Dew Point 28 °F    
Average Humidity 69    
Maximum Humidity 89    
Minimum Humidity 48    
Precipitation  
Precipitation 0.01 in 0.11 in 2.44 in (1920)
Month to date precipitation 0.01 0.33  
Year to date precipitation 2.77 3.73  
Snow  
Snow 0.00 in 0.10 in 2.30 in (1970)
Month to date snowfall T 0.2  
Since 1 July snowfall 1.6 3.8  
Snow Depth 0.00 in    
Sea Level Pressure  
Sea Level Pressure 29.91 in    
Wind  
Wind Speed 6 mph (NW)    
Max Wind Speed 17 mph    
Max Gust Speed 23 mph    
Visibility 10 miles    
Events Rain    
T = Trace of Precipitation, MM = Missing Value Source: NWS Daily Summary

Daily Weather History Graph

Daily Weather History Graph

Search for Another Location

Airport or City:

Trip Planner

Search our weather history database for the weather conditions in past years. The results will help you decide how hot, cold, wet, or windy it might be!

Date:

Astronomy

Feb. 03, 2013 Rise Set
Actual Time 7:05 AM EST 5:32 PM EST
Civil Twilight 6:38 AM EST 5:59 PM EST
Nautical Twilight 6:07 AM EST 6:30 PM EST
Astronomical Twilight 5:36 AM EST 7:01 PM EST
Moon 12:29 AM EST (2/3) 11:09 AM EST (2/3)
Length of Visible Light 11h 21m
Length of Day
10h 27m
Waning Gibbous, 49% of the Moon is Illuminated
Feb 3
Waning Gibbous
Feb 10
New
Feb 17
First Quarter
Feb 25
Full
Mar 4
Last Quarter

Hourly Weather History & Observations

Time (EST) Temp. Windchill Dew Point Humidity Pressure Visibility Wind Dir Wind Speed Gust Speed Precip Events Conditions
12:51 AM 37.9 °F 30.9 °F 23.0 °F 55% 30.01 in 10.0 mi SSW 10.4 mph - N/A   Overcast
1:05 AM 37.4 °F 28.9 °F 28.4 °F 70% 30.00 in 10.0 mi WSW 13.8 mph 23.0 mph 0.00 in Rain Light Rain
1:40 AM 37.4 °F 29.3 °F 32.0 °F 81% 29.98 in 10.0 mi SW 12.7 mph - 0.01 in   Overcast
1:51 AM 37.0 °F 29.8 °F 32.0 °F 82% 29.97 in 10.0 mi SW 10.4 mph 18.4 mph 0.01 in   Overcast
2:51 AM 37.0 °F 32.4 °F 33.1 °F 86% 29.95 in 10.0 mi SW 5.8 mph - N/A   Overcast
3:51 AM 37.0 °F - 32.0 °F 82% 29.92 in 10.0 mi Calm Calm - N/A   Overcast
4:51 AM 35.6 °F 30.7 °F 32.0 °F 87% 29.92 in 10.0 mi SSW 5.8 mph - N/A   Overcast
5:51 AM 35.1 °F 32.2 °F 30.9 °F 85% 29.91 in 10.0 mi West 3.5 mph - N/A   Clear
6:51 AM 36.0 °F 33.3 °F 28.9 °F 76% 29.91 in 10.0 mi Variable 3.5 mph - N/A   Scattered Clouds
7:51 AM 37.4 °F 33.8 °F 24.8 °F 60% 29.92 in 10.0 mi NNW 4.6 mph - N/A   Overcast
8:51 AM 37.0 °F 29.8 °F 24.1 °F 59% 29.92 in 10.0 mi North 10.4 mph - N/A   Overcast
9:51 AM 37.9 °F 30.9 °F 28.0 °F 68% 29.92 in 10.0 mi North 10.4 mph - N/A   Overcast
10:51 AM 39.9 °F 33.4 °F 27.0 °F 60% 29.92 in 10.0 mi North 10.4 mph - N/A   Mostly Cloudy
11:51 AM 39.0 °F 34.0 °F 25.0 °F 57% 29.91 in 10.0 mi NNE 6.9 mph - N/A   Mostly Cloudy
12:51 PM 39.9 °F 37.8 °F 26.1 °F 58% 29.88 in 10.0 mi ENE 3.5 mph - N/A   Overcast
1:51 PM 39.0 °F 34.8 °F 26.1 °F 60% 29.85 in 10.0 mi North 5.8 mph - N/A   Mostly Cloudy
2:51 PM 39.0 °F 34.0 °F 26.1 °F 60% 29.84 in 10.0 mi ENE 6.9 mph - N/A   Scattered Clouds
3:51 PM 37.9 °F 34.4 °F 27.0 °F 65% 29.84 in 10.0 mi NNE 4.6 mph - N/A   Partly Cloudy
4:51 PM 39.0 °F 35.7 °F 28.0 °F 65% 29.85 in 10.0 mi NE 4.6 mph - N/A   Partly Cloudy
5:51 PM 36.0 °F 32.1 °F 28.0 °F 73% 29.86 in 10.0 mi NE 4.6 mph - N/A   Partly Cloudy
6:51 PM 36.0 °F 33.3 °F 28.0 °F 73% 29.88 in 10.0 mi SSE 3.5 mph - N/A   Overcast
7:51 PM 36.0 °F - 28.0 °F 73% 29.89 in 10.0 mi Calm Calm - N/A   Scattered Clouds
8:51 PM 32.0 °F - 26.1 °F 79% 29.90 in 10.0 mi Calm Calm - N/A   Clear
9:51 PM 37.9 °F 33.5 °F 27.0 °F 65% 29.91 in 10.0 mi WSW 5.8 mph - N/A   Clear
10:51 PM 39.0 °F 34.8 °F 25.0 °F 57% 29.92 in 10.0 mi WNW 5.8 mph - N/A   Clear
11:51 PM 37.9 °F 34.4 °F 24.1 °F 57% 29.94 in 10.0 mi Variable 4.6 mph - N/A   Clear